Time,TemperatureF,DewpointF,PressureIn,WindDirection,WindDirectionDegrees,WindSpeedMPH,WindSpeedGustMPH,Humidity,HourlyPrecipIn,Conditions,Clouds,dailyrainin,SoftwareType,DateUTC
2013-03-05 00:02:00,28.0,24.0,30.04,North,0,0.0,0.0,83,0.00,,,0.00,,2013-03-05 05:02:00,
2013-03-05 00:12:00,28.0,24.0,30.04,North,0,0.0,0.0,83,0.00,,,0.00,,2013-03-05 05:12:00,
2013-03-05 00:22:00,28.0,24.0,30.04,North,0,0.0,0.0,83,0.00,,,0.00,,2013-03-05 05:22:00,
2013-03-05 00:32:00,29.0,25.0,30.04,North,0,0.0,0.0,84,0.00,,,0.00,,2013-03-05 05:32:00,
2013-03-05 00:42:00,29.0,25.0,30.04,North,0,0.0,0.0,84,0.00,,,0.00,,2013-03-05 05:42:00,
2013-03-05 00:52:00,29.0,25.0,30.04,North,0,0.0,0.0,84,0.00,,,0.00,,2013-03-05 05:52:00,
2013-03-05 01:01:00,30.0,25.0,30.03,North,0,0.0,0.0,83,0.00,,,0.00,,2013-03-05 06:01:00,
2013-03-05 01:11:00,30.0,25.0,30.03,North,0,0.0,0.0,83,0.00,,,0.00,,2013-03-05 06:11:00,
2013-03-05 01:22:00,30.0,25.0,30.03,North,0,0.0,0.0,83,0.00,,,0.00,,2013-03-05 06:22:00,
2013-03-05 01:32:00,31.0,26.0,30.04,North,0,0.0,0.0,83,0.00,,,0.00,,2013-03-05 06:32:00,
2013-03-05 01:42:00,31.0,26.0,30.04,North,0,0.0,0.0,83,0.00,,,0.00,,2013-03-05 06:42:00,
2013-03-05 01:52:00,32.0,27.0,30.04,North,0,0.0,0.0,82,0.00,,,0.00,,2013-03-05 06:52:00,
2013-03-05 02:01:00,32.0,27.0,30.04,North,0,0.0,0.0,83,0.00,,,0.00,,2013-03-05 07:01:00,
2013-03-05 02:11:00,32.0,27.0,30.04,North,0,0.0,0.0,83,0.00,,,0.00,,2013-03-05 07:11:00,
2013-03-05 02:22:00,32.0,27.0,30.04,North,0,0.0,0.0,83,0.00,,,0.00,,2013-03-05 07:22:00,
2013-03-05 02:32:00,32.0,27.0,30.04,North,0,0.0,0.0,83,0.00,,,0.00,,2013-03-05 07:32:00,
2013-03-05 02:41:00,32.0,27.0,30.04,North,0,0.0,0.0,83,0.00,,,0.00,,2013-03-05 07:41:00,
2013-03-05 02:51:00,33.0,28.0,30.04,North,0,0.0,0.0,83,0.00,,,0.00,,2013-03-05 07:51:00,
2013-03-05 03:02:00,33.0,29.0,30.04,North,0,0.0,0.0,84,0.00,,,0.00,,2013-03-05 08:02:00,
2013-03-05 03:11:00,33.0,29.0,30.04,North,0,0.0,0.0,84,0.00,,,0.00,,2013-03-05 08:11:00,
2013-03-05 03:21:00,33.0,28.0,30.04,North,0,0.0,0.0,83,0.00,,,0.00,,2013-03-05 08:21:00,
2013-03-05 03:31:00,34.0,29.0,30.04,North,0,0.0,0.0,83,0.00,,,0.00,,2013-03-05 08:31:00,
2013-03-05 03:41:00,34.0,29.0,30.04,North,0,0.0,0.0,83,0.00,,,0.00,,2013-03-05 08:41:00,
2013-03-05 03:52:00,34.0,30.0,30.04,North,0,0.0,0.0,84,0.00,,,0.00,,2013-03-05 08:52:00,
2013-03-05 04:01:00,34.0,30.0,30.04,North,0,0.0,0.0,84,0.00,,,0.00,,2013-03-05 09:01:00,
2013-03-05 04:11:00,34.0,29.0,30.04,North,0,0.0,0.0,83,0.00,,,0.00,,2013-03-05 09:11:00,
2013-03-05 04:21:00,34.0,29.0,30.04,North,0,0.0,0.0,83,0.00,,,0.00,,2013-03-05 09:21:00,
2013-03-05 04:32:00,34.0,29.0,30.04,North,0,0.0,0.0,83,0.00,,,0.00,,2013-03-05 09:32:00,
2013-03-05 04:42:00,34.0,29.0,30.04,North,0,0.0,0.0,83,0.00,,,0.00,,2013-03-05 09:42:00,
2013-03-05 04:52:00,35.0,30.0,30.04,North,0,0.0,0.0,83,0.00,,,0.00,,2013-03-05 09:52:00,
2013-03-05 05:01:00,35.0,31.0,30.04,North,0,0.0,0.0,84,0.00,,,0.00,,2013-03-05 10:01:00,
2013-03-05 05:11:00,35.0,31.0,30.04,North,0,0.0,0.0,84,0.00,,,0.00,,2013-03-05 10:11:00,
2013-03-05 05:21:00,35.0,31.0,30.04,North,0,0.0,0.0,84,0.00,,,0.00,,2013-03-05 10:21:00,
2013-03-05 05:32:00,35.0,31.0,30.04,North,0,0.0,0.0,84,0.00,,,0.00,,2013-03-05 10:32:00,
2013-03-05 05:42:00,35.0,31.0,30.04,North,0,0.0,0.0,84,0.00,,,0.00,,2013-03-05 10:42:00,
2013-03-05 05:52:00,35.0,30.0,30.05,North,0,0.0,0.0,83,0.00,,,0.00,,2013-03-05 10:52:00,
2013-03-05 06:02:00,35.0,31.0,30.05,North,0,0.0,0.0,85,0.00,,,0.00,,2013-03-05 11:02:00,
2013-03-05 06:11:00,35.0,31.0,30.04,North,0,0.0,0.0,86,0.00,,,0.00,,2013-03-05 11:11:00,
2013-03-05 06:22:00,35.0,31.0,30.04,North,0,0.0,0.0,86,0.00,,,0.00,,2013-03-05 11:22:00,
2013-03-05 06:32:00,35.0,31.0,30.04,North,0,0.0,0.0,85,0.00,,,0.00,,2013-03-05 11:32:00,
2013-03-05 06:42:00,35.0,31.0,30.04,North,0,0.0,0.0,85,0.00,,,0.00,,2013-03-05 11:42:00,
2013-03-05 06:52:00,35.0,31.0,30.04,North,0,0.0,0.0,85,0.00,,,0.00,,2013-03-05 11:52:00,
2013-03-05 07:02:00,34.0,30.0,30.03,North,0,0.0,0.0,86,0.00,,,0.00,,2013-03-05 12:02:00,
2013-03-05 07:12:00,34.0,30.0,30.03,North,0,0.0,0.0,86,0.00,,,0.00,,2013-03-05 12:12:00,
2013-03-05 07:22:00,33.0,30.0,30.03,North,0,0.0,0.0,87,0.00,,,0.00,,2013-03-05 12:22:00,
2013-03-05 07:32:00,33.0,30.0,30.03,North,0,0.0,0.0,88,0.00,,,0.00,,2013-03-05 12:32:00,
2013-03-05 07:42:00,33.0,30.0,30.03,North,0,0.0,0.0,88,0.00,,,0.00,,2013-03-05 12:42:00,
2013-03-05 07:53:00,33.0,30.0,30.02,North,0,0.0,0.0,89,0.00,,,0.00,,2013-03-05 12:53:00,
2013-03-05 08:02:00,34.0,31.0,30.02,North,0,0.0,0.0,88,0.00,,,0.00,,2013-03-05 13:02:00,
2013-03-05 08:11:00,34.0,31.0,30.02,North,0,0.0,0.0,88,0.00,,,0.00,,2013-03-05 13:11:00,
2013-03-05 08:22:00,35.0,32.0,30.02,North,0,0.0,0.0,88,0.00,,,0.00,,2013-03-05 13:22:00,
2013-03-05 08:32:00,37.0,33.0,30.01,North,0,0.0,0.0,86,0.00,,,0.00,,2013-03-05 13:32:00,
2013-03-05 08:42:00,37.0,33.0,30.01,North,0,0.0,0.0,86,0.00,,,0.00,,2013-03-05 13:42:00,
2013-03-05 08:52:00,38.0,33.0,30.02,North,0,0.0,0.0,82,0.00,,,0.00,,2013-03-05 13:52:00,
2013-03-05 09:02:00,40.0,32.0,30.02,North,0,0.0,1.0,73,0.00,,,0.00,,2013-03-05 14:02:00,
2013-03-05 09:11:00,40.0,32.0,30.02,North,0,0.0,1.0,73,0.00,,,0.00,,2013-03-05 14:11:00,
2013-03-05 09:22:00,45.0,30.0,30.01,North,0,0.0,1.0,55,0.00,,,0.00,,2013-03-05 14:22:00,
2013-03-05 09:32:00,46.0,29.0,30.00,ESE,120,1.0,5.0,52,0.00,,,0.00,,2013-03-05 14:32:00,
2013-03-05 09:42:00,46.0,29.0,30.00,ESE,120,1.0,5.0,52,0.00,,,0.00,,2013-03-05 14:42:00,
2013-03-05 09:52:00,46.0,28.0,30.01,SSE,147,2.0,5.0,49,0.00,,,0.00,,2013-03-05 14:52:00,
2013-03-05 10:02:00,47.0,28.0,30.01,SSE,167,2.0,5.0,47,0.00,,,0.00,,2013-03-05 15:02:00,
2013-03-05 10:11:00,47.0,28.0,30.01,SSE,167,2.0,5.0,47,0.00,,,0.00,,2013-03-05 15:11:00,
2013-03-05 10:21:00,50.0,28.0,30.00,North,0,0.0,7.0,43,0.00,,,0.00,,2013-03-05 15:21:00,
2013-03-05 10:32:00,49.0,29.0,29.99,SSE,147,2.0,6.0,46,0.00,,,0.00,,2013-03-05 15:32:00,
2013-03-05 10:42:00,49.0,29.0,29.99,SSE,147,2.0,6.0,46,0.00,,,0.00,,2013-03-05 15:42:00,
2013-03-05 10:52:00,48.0,30.0,29.99,SE,134,1.0,5.0,49,0.00,,,0.00,,2013-03-05 15:52:00,
2013-03-05 11:01:00,48.0,30.0,29.99,SE,135,1.0,3.0,49,0.00,,,0.00,,2013-03-05 16:01:00,
2013-03-05 11:11:00,48.0,30.0,29.99,SE,135,1.0,3.0,49,0.00,,,0.00,,2013-03-05 16:11:00,
2013-03-05 11:21:00,48.0,31.0,29.99,North,0,0.0,1.0,52,0.00,,,0.00,,2013-03-05 16:21:00,
2013-03-05 11:32:00,49.0,32.0,29.98,North,0,0.0,0.0,51,0.00,,,0.00,,2013-03-05 16:32:00,
2013-03-05 11:42:00,49.0,32.0,29.98,North,0,0.0,0.0,51,0.00,,,0.00,,2013-03-05 16:42:00,
2013-03-05 11:52:00,49.0,32.0,29.98,North,0,0.0,0.0,51,0.00,,,0.00,,2013-03-05 16:52:00,
2013-03-05 12:01:00,49.0,32.0,29.98,North,0,0.0,2.0,52,0.00,,,0.00,,2013-03-05 17:01:00,
2013-03-05 12:11:00,49.0,32.0,29.98,North,0,0.0,2.0,52,0.00,,,0.00,,2013-03-05 17:11:00,
2013-03-05 12:22:00,50.0,34.0,29.97,SE,135,1.0,3.0,53,0.00,,,0.00,,2013-03-05 17:22:00,
2013-03-05 12:32:00,49.0,34.0,29.97,North,0,0.0,5.0,57,0.00,,,0.00,,2013-03-05 17:32:00,
2013-03-05 12:42:00,49.0,34.0,29.97,North,0,0.0,5.0,57,0.00,,,0.00,,2013-03-05 17:42:00,
2013-03-05 12:53:00,49.0,37.0,29.96,North,0,0.0,6.0,64,0.00,,,0.00,,2013-03-05 17:53:00,
2013-03-05 13:02:00,48.0,41.0,29.96,North,0,0.0,3.0,76,0.00,,,0.00,,2013-03-05 18:02:00,
2013-03-05 13:11:00,48.0,41.0,29.96,North,0,0.0,3.0,76,0.00,,,0.00,,2013-03-05 18:11:00,
2013-03-05 13:22:00,46.0,41.0,29.95,North,0,0.0,4.0,83,0.01,,,0.01,,2013-03-05 18:22:00,
2013-03-05 13:32:00,45.0,42.0,29.93,SSE,164,1.0,3.0,90,0.03,,,0.03,,2013-03-05 18:32:00,
2013-03-05 13:42:00,45.0,42.0,29.93,SSE,164,1.0,3.0,90,0.03,,,0.03,,2013-03-05 18:42:00,
2013-03-05 13:52:00,44.0,42.0,29.92,North,0,0.0,2.0,92,0.05,,,0.05,,2013-03-05 18:52:00,
2013-03-05 14:01:00,44.0,42.0,29.91,North,0,0.0,3.0,93,0.06,,,0.06,,2013-03-05 19:01:00,
2013-03-05 14:11:00,44.0,42.0,29.91,North,0,0.0,3.0,93,0.06,,,0.06,,2013-03-05 19:11:00,
2013-03-05 14:21:00,44.0,42.0,29.91,North,0,0.0,2.0,93,0.07,,,0.08,,2013-03-05 19:21:00,
2013-03-05 14:32:00,45.0,43.0,29.91,North,0,0.0,0.0,94,0.06,,,0.09,,2013-03-05 19:32:00,
2013-03-05 14:42:00,45.0,43.0,29.91,North,0,0.0,0.0,94,0.06,,,0.09,,2013-03-05 19:42:00,
2013-03-05 14:52:00,45.0,43.0,29.90,North,0,0.0,2.0,94,0.04,,,0.09,,2013-03-05 19:52:00,
2013-03-05 15:01:00,45.0,44.0,29.89,North,0,0.0,1.0,95,0.03,,,0.09,,2013-03-05 20:01:00,
2013-03-05 15:11:00,45.0,44.0,29.88,North,0,0.0,2.0,95,0.02,,,0.10,,2013-03-05 20:11:00,
2013-03-05 15:22:00,45.0,44.0,29.88,North,0,0.0,2.0,95,0.02,,,0.10,,2013-03-05 20:22:00,
2013-03-05 15:32:00,45.0,44.0,29.88,North,0,0.0,0.0,95,0.02,,,0.11,,2013-03-05 20:32:00,
2013-03-05 15:42:00,45.0,44.0,29.88,North,0,0.0,0.0,95,0.02,,,0.11,,2013-03-05 20:42:00,
2013-03-05 15:52:00,45.0,44.0,29.88,North,0,0.0,0.0,95,0.02,,,0.11,,2013-03-05 20:52:00,
2013-03-05 16:02:00,45.0,44.0,29.88,North,0,0.0,0.0,96,0.02,,,0.11,,2013-03-05 21:02:00,
2013-03-05 16:11:00,45.0,44.0,29.88,North,0,0.0,0.0,96,0.02,,,0.11,,2013-03-05 21:11:00,
2013-03-05 16:22:00,45.0,44.0,29.87,North,0,0.0,2.0,95,0.01,,,0.11,,2013-03-05 21:22:00,
2013-03-05 16:32:00,45.0,44.0,29.85,North,0,0.0,0.0,96,0.02,,,0.13,,2013-03-05 21:32:00,
2013-03-05 16:42:00,45.0,44.0,29.85,North,0,0.0,0.0,96,0.02,,,0.13,,2013-03-05 21:42:00,
2013-03-05 16:52:00,45.0,44.0,29.85,North,0,0.0,0.0,96,0.02,,,0.13,,2013-03-05 21:52:00,
2013-03-05 17:01:00,45.0,44.0,29.85,North,0,0.0,0.0,96,0.04,,,0.15,,2013-03-05 22:01:00,
2013-03-05 17:11:00,45.0,44.0,29.85,North,0,0.0,0.0,96,0.04,,,0.15,,2013-03-05 22:11:00,
2013-03-05 17:22:00,45.0,44.0,29.85,North,0,0.0,0.0,96,0.05,,,0.16,,2013-03-05 22:22:00,
2013-03-05 17:32:00,45.0,44.0,29.83,North,0,0.0,0.0,96,0.06,,,0.19,,2013-03-05 22:32:00,
2013-03-05 17:42:00,45.0,44.0,29.83,North,0,0.0,0.0,96,0.06,,,0.19,,2013-03-05 22:42:00,
2013-03-05 17:52:00,45.0,44.0,29.83,North,0,0.0,0.0,96,0.07,,,0.20,,2013-03-05 22:52:00,
2013-03-05 18:01:00,45.0,44.0,29.82,North,0,0.0,0.0,96,0.05,,,0.20,,2013-03-05 23:01:00,
2013-03-05 18:11:00,45.0,44.0,29.82,North,0,0.0,0.0,96,0.05,,,0.20,,2013-03-05 23:11:00,
2013-03-05 18:21:00,45.0,44.0,29.82,North,0,0.0,0.0,96,0.05,,,0.20,,2013-03-05 23:21:00,
2013-03-05 18:32:00,45.0,44.0,29.81,North,0,0.0,1.0,96,0.01,,,0.20,,2013-03-05 23:32:00,
2013-03-05 18:42:00,45.0,44.0,29.81,North,0,0.0,1.0,96,0.01,,,0.20,,2013-03-05 23:42:00,
2013-03-05 18:53:00,45.0,44.0,29.80,North,0,0.0,1.0,96,0.00,,,0.20,,2013-03-05 23:53:00,
2013-03-05 19:02:00,45.0,44.0,29.79,North,0,0.0,2.0,97,0.00,,,0.20,,2013-03-06 00:02:00,
2013-03-05 19:11:00,45.0,44.0,29.79,North,0,0.0,2.0,97,0.00,,,0.20,,2013-03-06 00:11:00,
2013-03-05 19:21:00,45.0,44.0,29.78,North,0,0.0,3.0,97,0.00,,,0.20,,2013-03-06 00:21:00,
2013-03-05 19:32:00,45.0,44.0,29.77,North,0,0.0,2.0,96,0.00,,,0.20,,2013-03-06 00:32:00,
2013-03-05 19:42:00,45.0,44.0,29.77,North,0,0.0,2.0,96,0.00,,,0.20,,2013-03-06 00:42:00,
2013-03-05 19:52:00,44.0,43.0,29.75,North,0,0.0,0.0,96,0.00,,,0.20,,2013-03-06 00:52:00,
2013-03-05 20:02:00,44.0,43.0,29.74,North,0,0.0,1.0,96,0.00,,,0.20,,2013-03-06 01:02:00,
2013-03-05 20:11:00,44.0,43.0,29.74,North,0,0.0,1.0,96,0.00,,,0.20,,2013-03-06 01:11:00,
2013-03-05 20:21:00,44.0,43.0,29.73,North,0,0.0,3.0,96,0.00,,,0.20,,2013-03-06 01:21:00,
2013-03-05 20:32:00,44.0,43.0,29.69,North,0,0.0,7.0,96,0.00,,,0.20,,2013-03-06 01:32:00,
2013-03-05 20:42:00,44.0,43.0,29.69,North,0,0.0,7.0,96,0.00,,,0.20,,2013-03-06 01:42:00,
2013-03-05 20:51:00,44.0,43.0,29.68,North,0,0.0,7.0,96,0.00,,,0.20,,2013-03-06 01:51:00,
2013-03-05 21:01:00,44.0,43.0,29.67,SE,139,1.0,11.0,95,0.00,,,0.20,,2013-03-06 02:01:00,
2013-03-05 21:11:00,44.0,43.0,29.67,SE,139,1.0,11.0,95,0.00,,,0.20,,2013-03-06 02:11:00,
2013-03-05 21:22:00,44.0,42.0,29.66,North,0,0.0,7.0,94,0.00,,,0.20,,2013-03-06 02:22:00,
2013-03-05 21:32:00,43.0,41.0,29.67,North,0,0.0,7.0,94,0.01,,,0.21,,2013-03-06 02:32:00,
2013-03-05 21:42:00,43.0,41.0,29.67,North,0,0.0,7.0,94,0.01,,,0.21,,2013-03-06 02:42:00,
2013-03-05 21:52:00,43.0,41.0,29.65,North,0,0.0,5.0,94,0.02,,,0.22,,2013-03-06 02:52:00,
2013-03-05 22:02:00,43.0,41.0,29.64,North,0,0.0,6.0,94,0.02,,,0.22,,2013-03-06 03:02:00,
2013-03-05 22:11:00,43.0,41.0,29.64,North,0,0.0,6.0,94,0.02,,,0.22,,2013-03-06 03:11:00,
2013-03-05 22:22:00,42.0,40.0,29.63,North,0,0.0,4.0,94,0.03,,,0.23,,2013-03-06 03:22:00,
2013-03-05 22:32:00,42.0,41.0,29.62,North,0,0.0,6.0,95,0.08,,,0.29,,2013-03-06 03:32:00,
2013-03-05 22:42:00,42.0,41.0,29.62,North,0,0.0,6.0,95,0.08,,,0.29,,2013-03-06 03:42:00,
2013-03-05 22:52:00,42.0,41.0,29.62,North,0,0.0,2.0,95,0.11,,,0.33,,2013-03-06 03:52:00,
2013-03-05 23:02:00,42.0,41.0,29.61,North,0,0.0,2.0,96,0.14,,,0.36,,2013-03-06 04:02:00,
2013-03-05 23:11:00,42.0,41.0,29.61,North,0,0.0,2.0,96,0.14,,,0.36,,2013-03-06 04:11:00,
2013-03-05 23:22:00,42.0,41.0,29.60,North,0,0.0,1.0,96,0.16,,,0.39,,2013-03-06 04:22:00,
2013-03-05 23:32:00,42.0,41.0,29.59,North,0,0.0,5.0,96,0.10,,,0.39,,2013-03-06 04:32:00,
2013-03-05 23:42:00,42.0,41.0,29.59,North,0,0.0,5.0,96,0.10,,,0.39,,2013-03-06 04:42:00,
2013-03-05 23:52:00,42.0,41.0,29.57,North,0,0.0,2.0,96,0.06,,,0.39,,2013-03-06 04:52:00,